[[{"header":{"parameterUnit":"m.s-1","parameterCategory":1,"la1":30.2991,"la2":30.254,"lo1":-89.0895,"lo2":-89.0444,"dy":0.0017,"dx":0.0017,"nx":28,"ny":28,"refTime":"2024-08-11T15:00:00:Z","depth":0,"parameterNumber":2,"parameterNumberName":"U-component_of_WINDS"},"data":[0,0,0,0,0,0,0,0,0,0,0,0,0,0,0,0,0,0,0,0,0,0,0,0,0,0,0,0,0,0,0,0,0,0,0,0,0,0,0,0,0,0,0,0,0,0,0,0,0,0,0,0,0,0,0,0,0,0,0.5028,0.5028,0,0.5098,0.5098,0.5099,0.5097,0.5096,0.5095,0.5094,0.517,0.5173,0.5176,0,0,0,0,0,0,0,0,0,0,0,0,0,0.4897,0.4899,0.5028,0.5029,0.5029,0.5097,0.5098,0.5099,0.5097,0.5096,0.5094,0.5093,0.5169,0.5173,0.5176,0,0,0,0,0,0,0,0,0,0,0,0,0,0.4959,0.49,0.5027,0.5036,0.5038,0.5097,0.5098,0.51,0.5097,0.5096,0.5094,0.5093,0.5168,0.5172,0.5177,0.5234,0,0,0.519,0.5192,0,0,0,0,0,0,0,0,0.4955,0.4964,0.5034,0.5036,0.5037,0.5087,0.508,0.5145,0.5097,0.5075,0.5094,0.5092,0.5144,0.515,0.5167,0.5237,0.5241,0.5191,0.5193,0.5195,0.5197,0,0,0,0,0,0,0,0.4951,0.4961,0.5055,0.5035,0.5037,0.5038,0.5045,0.5092,0.5117,0.5077,0.5076,0.5085,0.5145,0.5163,0.5169,0.5242,0.5191,0.5195,0.5197,0.5199,0.5364,0.5366,0,0,0,0,0,0,0.4944,0.4957,0.5053,0.5058,0.4992,0.5042,0.505,0.5073,0.5116,0.5122,0.5086,0.5084,0.5156,0.5163,0.5171,0.5242,0.5195,0.5199,0.5202,0.5362,0.5364,0.5366,0,0,0,0,0,0,0.4941,0.4953,0.505,0.5007,0.502,0.5045,0.5071,0.5075,0.5093,0.5123,0.5128,0.5099,0.5155,0.5165,0.5218,0.5245,0.5201,0.5205,0.536,0.5363,0.5365,0.5383,0,0,0,0,0,0,0.4938,0.4952,0.4973,0.5008,0.5022,0.5095,0.5073,0.5077,0.51,0.5098,0.5137,0.5142,0.5154,0.5212,0.5223,0.525,0.5209,0.5358,0.5361,0.5364,0.5381,0.5386,0.5391,0,0,0,0,0,0.4933,0.4976,0.4974,0.4985,0.5048,0.5096,0.5105,0.5116,0.5102,0.5124,0.5144,0.5141,0.5239,0.5217,0.5229,0.5259,0.5356,0.536,0.5364,0.5378,0.5385,0.5391,0,0,0,0,0,0,0.4945,0.4981,0.4979,0.5034,0.5062,0.5096,0.5124,0.5123,0.5157,0.5155,0.5169,0.5178,0.5232,0.525,0.5225,0.5317,0.5296,0.5303,0.5303,0.531,0.5315,0.531,0.5213,0,0,0,0,0,0.4954,0.4988,0.5018,0.5064,0.5078,0.5098,0.512,0.5126,0.5156,0.5169,0.5192,0.5223,0.5261,0.5286,0.5323,0.5382,0.5392,0.5409,0.5414,0.5418,0.5424,0.5459,0.5467,0.5379,0.5379,0.5379,0,0,0.4973,0.4997,0.5018,0.5067,0.5089,0.5126,0.5109,0.5148,0.5176,0.5175,0.5227,0.5245,0.5281,0.5338,0.5364,0.5355,0.545,0.5423,0.5426,0.543,0.5463,0.5472,0.5479,0.5381,0.5381,0.5381,0,0,0.5027,0.5047,0.5089,0.5111,0.5145,0.5158,0.5168,0.5202,0.5213,0.5265,0.5265,0.5299,0.5364,0.5389,0.5411,0.5474,0.5474,0.5485,0.5514,0.5547,0.5554,0.556,0.5585,0.5593,0.5491,0.5491,0.5491,0,0.5047,0.5101,0.511,0.515,0.5172,0.5171,0.5214,0.5236,0.528,0.5296,0.5285,0.5366,0.539,0.5453,0.5469,0.5485,0.5498,0.5482,0.5552,0.5558,0.5565,0.5588,0.5597,0.5492,0.5492,0.5492,0.5492,0,0.5125,0.5163,0.5192,0.5234,0.5259,0.53,0.5317,0.5342,0.5345,0.536,0.5414,0.5442,0.5484,0.5499,0.5504,0.5564,0.5557,0.5549,0.5529,0.5574,0.5596,0.5605,0.5494,0.5494,0.5494,0.5493,0,0,0.5191,0.5235,0.5246,0.5266,0.5302,0.5332,0.5374,0.5414,0.5436,0.5466,0.5502,0.5557,0.5549,0.5573,0.5581,0.561,0.566,0.5598,0.5599,0.561,0.5729,0.5737,0.5747,0.5658,0.566,0.5662,0.5727,0,0.525,0.5322,0.5331,0.5396,0.5432,0.543,0.5467,0.5494,0.5509,0.5543,0.5559,0.5598,0.5584,0.5599,0.5627,0.5647,0.5684,0.5643,0.5695,0.5696,0.5688,0.5758,0.5766,0.5826,0.5735,0.5736,0.5738,0,0.5329,0.536,0.5428,0.546,0.5476,0.5508,0.5546,0.5577,0.5609,0.5617,0.5644,0.5648,0.5692,0.5669,0.5731,0.5703,0.5725,0.5738,0.574,0.5747,0.5721,0.5769,0.5845,0.5855,0.5751,0.575,0.5749,0,0.5372,0.5431,0.548,0.5496,0.5534,0.5557,0.5574,0.5604,0.5627,0.5661,0.5676,0.5715,0.5736,0.5767,0.5781,0.5762,0.5843,0.5821,0.5854,0.5853,0.5873,0.5872,0.5956,0.5883,0.5883,0.5883,0.5883,0,0.5439,0.5481,0.55,0.553,0.5577,0.5587,0.5635,0.5651,0.5677,0.5712,0.5713,0.5746,0.5762,0.5797,0.5809,0.586,0.5869,0.5879,0.5882,0.588,0.5879,0.5896,0.5893,0.5885,0.5885,0.5884,0.5884,0,0.5496,0.5509,0.5563,0.5594,0.5603,0.5636,0.5664,0.5694,0.5708,0.5751,0.5762,0.5785,0.5827,0.5843,0.5895,0.5903,0.5962,0.5961,0.5951,0.5952,0.5985,0.5982,0.6085,0.6099,0.6015,0.6016,0.6017,0,0.5538,0.557,0.5604,0.5627,0.5644,0.568,0.5704,0.5715,0.574,0.5778,0.5804,0.5845,0.5879,0.5946,0.5968,0.6008,0.6009,0.6042,0.6015,0.6012,0.6011,0.601,0.6014,0.6047,0.6048,0.6049,0.605,0,0.5612,0.5618,0.5651,0.5687,0.5715,0.5744,0.5773,0.5791,0.5807,0.5835,0.5877,0.5903,0.5955,0.5997,0.6037,0.6056,0.6057,0.6057,0.6067,0.6067,0.6061,0.6066,0.5967,0.6056,0.6055,0.6055,0.6054,0.6054,0.5665,0.5694,0.5722,0.576,0.5782,0.5808,0.5838,0.5855,0.589,0.5932,0.5936,0.5982,0.6013,0.6067,0.6088,0.6125,0.6117,0.6131,0.6135,0.6138,0.6141,0.6053,0.6132,0.6132,0.6132,0.6132,0.6132,0,0.5741,0.5759,0.5793,0.5832,0.5862,0.5856,0.5888,0.5914,0.5953,0.5981,0.6014,0.6062,0.6103,0.6127,0.6168,0.6193,0.6194,0.6203,0.6203,0.6207,0.6146,0.6134,0.6202,0.6202,0.6202,0.6202,0.6202,0.6202,0.5784,0.5833,0.5841,0.5902,0.592,0.5963,0.5982,0.6007,0.6029,0.6083,0.6116,0.6131,0.6158,0.62,0.6238,0.6244,0.626,0.627,0.6276,0.6219,0.6212,0.6205,0.6194,0.6273,0.6273,0.6335,0.6336,0.6336]},{"header":{"parameterUnit":"m.s-1","parameterCategory":1,"la1":30.2991,"la2":30.254,"lo1":-89.0895,"lo2":-89.0444,"dy":0.0017,"dx":0.0017,"nx":28,"ny":28,"refTime":"2024-08-11T15:00:00:Z","depth":0,"parameterNumber":3,"parameterNumberName":"V-component_of_WINDS"},"data":[0,0,0,0,0,0,0,0,0,0,0,0,0,0,0,0,0,0,0,0,0,0,0,0,0,0,0,0,0,0,0,0,0,0,0,0,0,0,0,0,0,0,0,0,0,0,0,0,0,0,0,0,0,0,0,0,0,0,1.7001,1.7001,0,1.7006,1.7006,1.7007,1.7021,1.7021,1.7021,1.7022,1.7025,1.7025,1.7025,0,0,0,0,0,0,0,0,0,0,0,0,0,1.6997,1.6997,1.7001,1.7001,1.7001,1.7006,1.7006,1.7007,1.7021,1.7021,1.7021,1.7022,1.7026,1.7025,1.7025,0,0,0,0,0,0,0,0,0,0,0,0,0,1.7,1.6997,1.7001,1.7008,1.7009,1.7006,1.7006,1.7007,1.7021,1.7021,1.7021,1.7022,1.7026,1.7025,1.7025,1.7014,0,0,1.7024,1.7024,0,0,0,0,0,0,0,0,1.7,1.7,1.7007,1.7008,1.7009,1.7013,1.7007,1.7009,1.702,1.7016,1.7022,1.7022,1.7021,1.7021,1.7021,1.7015,1.7015,1.7024,1.7024,1.7024,1.7024,0,0,0,0,0,0,0,1.7,1.7,1.7003,1.7007,1.7008,1.701,1.7011,1.7007,1.7016,1.7017,1.7018,1.7018,1.7021,1.7021,1.7021,1.7015,1.7024,1.7024,1.7024,1.7024,1.6996,1.6996,0,0,0,0,0,0,1.6999,1.7,1.7003,1.7003,1.7006,1.701,1.7011,1.7011,1.7016,1.7017,1.7018,1.7019,1.7022,1.7022,1.7022,1.7007,1.7024,1.7024,1.7024,1.6997,1.6996,1.6995,0,0,0,0,0,0,1.6999,1.6999,1.7002,1.7002,1.7002,1.701,1.701,1.7011,1.7011,1.7017,1.7018,1.7016,1.7022,1.7022,1.7015,1.7008,1.7024,1.7023,1.6997,1.6997,1.6996,1.698,0,0,0,0,0,0,1.6999,1.6999,1.6996,1.7002,1.7002,1.6998,1.7009,1.7011,1.7011,1.7012,1.7016,1.7017,1.7022,1.7016,1.7015,1.7007,1.7023,1.6998,1.6997,1.6996,1.6981,1.6978,1.6976,0,0,0,0,0,1.6999,1.6992,1.6996,1.6996,1.6999,1.6997,1.6997,1.7004,1.701,1.7007,1.701,1.7017,1.7009,1.7015,1.7014,1.7007,1.6999,1.6997,1.6996,1.6982,1.6979,1.6976,0,0,0,0,0,0,1.6986,1.6993,1.6998,1.6993,1.6994,1.7,1.6996,1.7001,1.7001,1.7002,1.7009,1.701,1.7002,1.7004,1.7011,1.6995,1.7005,1.7003,1.6994,1.6991,1.6989,1.6988,1.7023,0,0,0,0,0,1.6982,1.6981,1.6987,1.6982,1.6982,1.6988,1.6988,1.6993,1.6994,1.6995,1.6998,1.6998,1.6995,1.6993,1.6991,1.6981,1.6981,1.6975,1.6973,1.6971,1.6969,1.6961,1.6958,1.6991,1.6991,1.6991,0,0,1.6975,1.6979,1.6978,1.6979,1.6981,1.6978,1.6989,1.6986,1.6983,1.6994,1.6988,1.699,1.699,1.6981,1.6977,1.6982,1.6959,1.6969,1.6967,1.6967,1.6959,1.6956,1.6953,1.699,1.699,1.6991,0,0,1.6961,1.6964,1.6959,1.696,1.6962,1.6966,1.6964,1.6968,1.697,1.6964,1.6971,1.6967,1.6963,1.6962,1.6961,1.6942,1.6948,1.6941,1.6929,1.692,1.6918,1.6915,1.6906,1.6903,1.694,1.694,1.694,0,1.6952,1.6948,1.6956,1.6951,1.695,1.696,1.6953,1.6954,1.6955,1.6953,1.6959,1.6951,1.6953,1.6942,1.6937,1.6937,1.6934,1.6941,1.6918,1.6915,1.6913,1.6905,1.6901,1.6939,1.6939,1.6939,1.6939,0,1.6936,1.6933,1.6928,1.6929,1.6927,1.6922,1.6927,1.6924,1.6928,1.693,1.6922,1.6923,1.692,1.6918,1.6923,1.6907,1.691,1.6916,1.6926,1.6909,1.6901,1.6898,1.6937,1.6938,1.6938,1.6938,0,0,1.6915,1.6918,1.6916,1.6914,1.6916,1.6913,1.6907,1.6904,1.69,1.69,1.6893,1.6887,1.6893,1.6891,1.6895,1.6888,1.687,1.6895,1.6895,1.6889,1.6849,1.6844,1.684,1.6873,1.6873,1.6872,1.6849,0,1.69,1.6891,1.6895,1.6884,1.688,1.6887,1.6881,1.688,1.6881,1.6876,1.6877,1.6873,1.6881,1.688,1.6873,1.6874,1.6862,1.6875,1.6865,1.6865,1.6864,1.6836,1.6831,1.6808,1.6846,1.6845,1.6845,0,1.6882,1.688,1.6868,1.6867,1.6866,1.6861,1.6856,1.6853,1.685,1.6851,1.6848,1.6853,1.6844,1.6854,1.684,1.6849,1.6845,1.6844,1.6844,1.6842,1.6853,1.6832,1.6802,1.6798,1.6841,1.6841,1.6841,0,1.6866,1.686,1.6852,1.6851,1.685,1.6846,1.6845,1.6843,1.684,1.6836,1.6833,1.6828,1.6825,1.6819,1.6821,1.6829,1.6806,1.6817,1.6805,1.6805,1.68,1.68,1.6767,1.6799,1.6799,1.68,1.68,0,1.6849,1.6841,1.6844,1.6839,1.6829,1.6833,1.6823,1.6823,1.682,1.6814,1.6819,1.6812,1.6816,1.6808,1.681,1.6797,1.6796,1.6795,1.6795,1.6794,1.6793,1.679,1.6791,1.6799,1.6799,1.6799,1.6799,0,1.683,1.6832,1.6823,1.6822,1.6821,1.6814,1.6812,1.6806,1.6806,1.6797,1.6795,1.6795,1.6787,1.6788,1.6779,1.6779,1.6762,1.6765,1.6763,1.6763,1.675,1.6751,1.6713,1.6707,1.6745,1.6744,1.6744,0,1.6818,1.6812,1.681,1.6805,1.6804,1.6798,1.6794,1.6796,1.6792,1.6786,1.678,1.6772,1.6765,1.675,1.6749,1.674,1.6742,1.6729,1.6741,1.6739,1.6739,1.6739,1.6737,1.6727,1.6726,1.6726,1.6726,0,1.6797,1.6797,1.6792,1.6786,1.678,1.6776,1.6772,1.6767,1.6769,1.6763,1.6754,1.6749,1.6738,1.6728,1.672,1.6717,1.672,1.6722,1.6718,1.6716,1.6715,1.6713,1.6755,1.6723,1.6723,1.6723,1.6724,1.6724,1.678,1.6774,1.677,1.6763,1.6759,1.6754,1.6747,1.6746,1.6738,1.673,1.6731,1.672,1.6714,1.6703,1.6699,1.6689,1.6694,1.6689,1.6688,1.6686,1.6683,1.6717,1.6688,1.6688,1.6688,1.6688,1.6688,0,1.6758,1.6755,1.6748,1.6741,1.6734,1.6738,1.6732,1.6726,1.6716,1.671,1.6703,1.669,1.668,1.6677,1.6666,1.6659,1.666,1.6656,1.6656,1.6654,1.6681,1.6684,1.6655,1.6655,1.6655,1.6655,1.6655,1.6655,1.6745,1.6733,1.6733,1.6718,1.6715,1.6704,1.67,1.6694,1.6689,1.6675,1.6666,1.6664,1.6658,1.6646,1.6636,1.6635,1.663,1.6625,1.6624,1.665,1.6653,1.6656,1.6659,1.6624,1.6624,1.6598,1.6598,1.6598]}]]